EHI
0 0 0 0 0 0 0 0 0 0 0 0 0 0 0 0 0 0 0 0 0 0 0 0 0 0 0 0 0 0 0 0 0 0 0 0 0 0 0 0 0 0 0
0 0 0 0 0 0 0 0 0 0 0 0 0 0 0 0 0 0 0 0 0 0 0 0 0 0 0 0 0 0 0 0 0 0 0 0 0 0 0 0 0 0 0
0 0 0 0 0 0 0 0 0 0 0 0 0 0 0 0 0 0 0 0 0 0 0 0 0 0 0 0 0 0 0 0 0 0 0 0 0 0 0 0 0 0 0
0 0 0 0 0 0 0 0 0 0 0 0 0 0 0 0 0 0 0 0 0 0 0 0 0 0 0 0 0 0 0 0 0 0 0 0 0 0 0 0 0 0 0
0 0 0 0 0 0 0 0 0 0 0 0 0 0 0 0 0 0 0 0 0 0 0 0 0 0 0 0 0 0 0 0 0 0 0 0 0 0 0 0 0 0 0
0 0 0 0 0 0 0 0 0 0 0 0 0 0 0 0 0 0 0 0 0 0 0 0 0 0 0 0 0 0 0 0 0 0 0 0 0 0 0 0 0 0 0
0 0 0 0 0 0 0 0 0 0 0 0 0 0 0 0 0 0 0 0 0 0 0 0 0 0 0 0 0 0 0 0 0 0 0 0 0 0 0 0 0 0 0
0 0 0 0 0 0 0 0 0 0 0 0 0 0 0 0 0 0 0 0 0 0 0 0 0 0 0 0 0 0 0 0 0 0 0 0 0 0 0 0 0 0 0
0 0 0 0 0 0 0 0 0 0 0 0 0 0 0 0 0 0 0 0 0 0 0 0 0 0 0 0 0 0 0 0 0 0 0 0 0 0 0 0 0 0 0
0 0 0 0 0 0 0 0 0 0 0 0 0 0 0 0 0 0 0 0 0 0 0 0 0 0 0 0 0 0 0 0 0 0 0 0 0 0 0 0 0 0 0
0 0 0 0 0 0 0 0 0 0 0 0 0 0 0 0 0 0 0 0 0 0 0 0 0 0 0 0 0 0 0 0 0 0 0 0 0 0 0 0 0 0 0
0 0 0 0 0 0 0 0 0 0 0 0 0 0 0 0 0 0 0 0 0 0 0 0 0 0 0 0 0 0 0 0 0 0 0 0 0 0 0 0 0 0 0
0 0 0 0 0 0 0 0 0 0 0 0 0 0 0 0 0 0 0 0 0 0 0 0 0 0 0 0 0 0 0 0 0 0 0 0 0 0 0 0 0 0 0
0 0 0 0 0 0 0 0 0 0 0 0 0 0 0 0 0 0 0 0 0 0 0 0 0 0 0 0 0 0 0 0 0 0 0 0 0 0 0 0 0 0 0
0 0 0 0 0 0 0 0 0 0 0 0 0 0 0 0 0 0 0 0 0 0 0 0 0 0 0 0 0 0 0 0 0 0 0 0 0 0 0 0 0 0 0
0 0 0 0 0 0 0 0 0 0 0 0 0 0 0 0 0 0 0 0 0 0 0 0 0 0 0 0 0 0 0 0 0 0 0 0 0 0 0 0 0 0 0
0 0 0 0 0 0 0 0 0 0 0 0 0 0 0 0 0 0 0 0 0 0 0 0 0 0 0 0 0 0 0 0 0 0 0 0 0 0 0 0 0 0 0
0 0 0 0 0 0 0 0 0 0 0 0 0 0 0 0 0 0 0 0 0 0 0 0 0 0 0 0 0 0 0 0 0 0 0 0 0 0 0 0 0 0 0
0 0 0 0 0 0 0 0 0 0 0 0 0 0 0 0 0 0 0 0 0 0 0 0 0 0 0 0 0 0 0 0 0 0 0 0 0 0 0 0 0 0 0
0 0 0 0 0 0 0 0 0 0 0 0 0 0 0 0 0 0 0 0 0 0 0 0 0 0 0 0 0 0 0 0 0 0 0 0 0 0 0 0 0 0 0
0 0 0 0 0 0 0 0 0 0 0 0 0 0 0 0 0 0 0 0 0 0 0 0 0 0 0 0 0 0 0 0 0 0 0 0 0 0 0 0 0 0 0
0 0 0 0 0 0 0 0 0 0 0 0 0 0 0 0 0 0 0 0 0 0 0 0 0 0 0 0 0 0 0 0 0 0 0 0 0 0 0 0 0 0 0
0 0 0 0 0 0 0 0 0 0 0 0 0 0 0 0 0 0 0 0 0 0 0 0 0 0 0 0 0 0 0 0 0 0 0 0 0 0 0 0 0 0 0
0 0 0 0 0 0 0 0 0 0 0 0 0 0 0 0 0 0 0 0 0 0 0 0 0 0 0 0 0 0 0 0 0 0 0 0 0 0 0 0 0 0 0
0 0 0 0 0 0 0 0 0 0 0 0 0 0 0 0 0 0 0 0 0 0 0 0 0 0 0 0 0 0 0 0 0 0 0 0 0 0 0 0 0 0 0
0 0 0 0 0 0 0 0 0 0 0 0 0 0 0 0 0 0 0 0 0 0 0 0 0 0 0 0 0 0 0 0 0 0 0 0 0 0 0 0 0 0 0
Wind_Speed
3 3 2 2 2 1 1 0 1 0 2 3 2 3 2 2 2 2 2 3 1 1 3 4 4 3 4 4 5 5 6 6 6 7 6 5 4 3 3 3 3 3 4
3 3 3 2 2 2 2 1 1 1 2 3 3 3 2 2 2 2 2 3 4 3 3 3 4 4 4 3 3 4 4 5 5 6 6 5 3 2 2 3 3 3 4
4 4 3 3 3 3 2 1 2 2 3 3 4 3 2 2 2 2 2 2 3 4 5 5 5 5 5 5 4 4 3 3 3 4 5 5 4 3 2 2 2 2 3
5 4 3 3 3 3 2 2 2 2 2 3 3 2 2 2 2 2 3 3 3 3 4 6 6 6 6 6 5 5 4 4 3 2 2 3 3 3 3 2 1 0 2
6 5 4 3 3 3 3 3 2 2 2 3 3 2 1 1 1 1 2 3 3 4 3 5 8 7 6 5 4 4 4 4 4 3 3 2 1 2 3 3 2 1 1
7 6 4 4 3 2 2 3 3 2 2 3 3 2 1 0 0 0 1 1 2 3 3 3 4 4 7 5 4 3 4 5 5 4 3 2 1 1 2 2 3 2 2
7 6 5 4 4 3 3 4 3 3 2 2 3 2 2 1 1 1 0 0 0 1 2 2 2 2 2 5 4 4 6 6 6 5 4 3 2 2 2 3 3 2 2
6 7 6 5 5 4 4 4 3 3 2 3 3 3 1 2 2 1 1 2 2 0 1 1 1 1 1 2 2 6 6 6 6 5 4 4 3 2 3 3 3 3 3
5 5 6 6 5 6 5 6 6 6 4 2 1 4 4 4 2 2 2 2 2 2 2 2 2 2 1 0 1 3 5 5 4 4 4 4 3 3 3 4 4 4 4
4 4 5 5 6 5 6 7 6 5 5 4 2 1 1 3 3 1 2 2 2 3 4 3 3 3 3 1 1 1 3 3 3 3 4 5 5 5 5 5 4 4 5
4 4 5 5 5 5 6 6 6 7 5 5 4 3 1 1 1 2 2 2 2 3 3 4 3 4 4 3 2 3 3 3 3 4 4 5 6 6 6 6 6 6 5
2 3 4 4 4 4 5 6 6 8 7 6 5 4 4 3 3 3 3 2 2 2 3 3 4 5 4 4 5 6 5 4 3 3 4 4 5 5 5 6 7 7 7
2 2 3 3 3 4 4 4 5 6 7 7 7 6 5 4 3 3 3 2 2 2 2 3 4 4 5 5 5 8 7 6 4 4 3 3 3 3 4 5 6 7 7
2 2 3 3 3 3 3 4 3 4 5 7 8 8 5 6 5 4 4 4 2 2 2 4 2 5 5 5 7 9 5 8 7 6 5 4 3 2 3 4 5 6 6
2 3 3 3 2 2 2 3 2 3 4 5 6 7 6 5 5 5 4 5 5 4 4 4 4 4 5 5 8 6 6 9 9 8 7 6 4 3 1 2 3 4 5
3 3 3 3 2 2 2 2 1 2 3 3 4 5 6 5 5 5 6 5 5 5 4 3 4 3 4 6 10 7 7 11 11 10 9 8 6 5 3 1 1 3 4
4 4 4 3 3 3 3 2 2 2 2 2 2 4 5 5 5 6 6 5 6 5 6 3 2 2 4 5 5 5 5 6 5 11 10 9 8 7 6 4 3 2 3
3 3 3 3 3 3 3 3 2 2 2 2 2 3 4 4 6 5 6 7 7 7 6 5 3 3 4 4 4 5 5 5 5 10 11 11 10 9 8 7 5 4 3
2 3 3 3 3 3 3 3 3 3 3 3 2 3 3 3 4 4 6 6 6 7 5 4 3 2 2 2 3 3 4 3 5 7 10 11 11 11 10 9 7 6 5
2 3 3 4 4 4 4 4 4 3 3 3 2 2 2 3 3 4 4 5 5 6 6 5 4 3 2 2 2 2 3 4 4 4 6 7 10 12 12 11 10 9 7
2 3 4 4 4 3 4 5 5 5 4 3 3 3 3 3 4 3 3 3 4 4 5 5 4 3 3 3 3 3 3 2 3 4 3 4 5 6 7 11 13 12 10
2 2 3 3 4 4 6 8 7 5 5 4 3 3 3 3 4 4 4 5 6 5 4 4 4 4 4 4 3 3 3 2 2 3 4 4 4 7 7 7 11 13 12
3 2 2 2 3 4 6 7 9 5 5 4 4 3 3 3 3 2 3 3 4 6 6 4 3 4 4 5 5 4 3 3 3 2 3 3 3 6 6 7 14 15 15
3 3 3 3 2 4 5 5 6 5 4 4 4 4 4 4 3 3 3 2 3 3 4 4 4 3 3 4 4 4 3 2 2 2 4 3 3 4 4 5 12 16 16
5 4 4 5 4 5 8 5 2 3 3 3 3 4 4 4 7 6 4 4 4 4 5 7 6 5 6 7 5 3 2 2 2 2 4 3 2 2 2 3 6 12 14
5 5 6 7 7 6 10 9 3 1 1 1 1 2 4 5 6 6 5 5 6 4 3 3 4 6 5 6 9 6 4 4 3 2 3 3 2 1 3 2 1 2 6
Wind_Direction
178 173 166 162 153 137 138 346 344 113 142 135 120 106 84 62 36 14 344 0 46 131 149 150 146 155 169 181 180 177 176 171 161 152 147 143 132 113 101 91 74 55 35
183 179 179 181 182 177 184 192 173 153 151 141 132 118 96 74 48 34 17 12 37 69 98 120 127 122 119 123 154 163 166 171 172 169 167 166 158 142 119 104 84 59 35
194 187 188 197 191 173 172 147 113 109 123 126 128 127 116 95 74 50 38 31 25 48 78 90 96 104 107 105 103 106 115 133 159 179 183 180 182 190 186 141 101 63 35
198 193 201 212 181 158 156 144 126 108 118 130 136 141 135 129 98 66 48 42 36 33 52 76 82 90 96 97 98 100 101 107 113 133 164 173 185 208 216 194 168 30 17
198 196 210 216 171 156 161 162 142 138 147 147 142 129 145 162 145 92 59 45 42 41 35 53 62 64 77 83 89 98 108 113 109 102 101 128 173 229 238 225 226 253 328
199 197 207 215 179 167 174 165 151 139 140 145 122 86 40 293 232 117 84 52 44 42 41 40 37 41 56 61 66 87 111 111 107 95 82 76 64 331 278 259 254 253 272
196 195 202 199 187 191 193 172 144 148 136 130 100 61 10 4 254 236 201 147 63 37 42 34 22 19 20 40 49 81 100 103 94 84 71 57 44 17 345 318 296 285 295
188 195 192 191 186 187 188 178 158 151 158 160 138 123 36 332 309 234 212 208 210 218 254 263 340 353 10 21 52 83 87 94 91 81 65 56 52 38 16 360 347 329 322
187 190 190 186 185 184 191 187 178 172 172 190 185 151 158 213 267 299 251 220 199 204 234 246 238 247 262 26 48 77 91 86 84 77 72 71 67 60 42 25 17 10 358
186 191 189 188 187 188 191 191 183 177 165 178 190 151 147 151 161 256 302 259 214 215 222 229 227 225 228 218 215 158 118 98 81 78 78 71 67 63 52 40 26 13 2
188 191 191 190 193 195 198 190 181 183 182 180 173 155 133 92 147 160 239 281 274 236 217 219 222 220 219 219 221 222 173 127 95 81 72 66 60 55 50 39 30 20 11
182 190 188 192 198 198 199 195 190 191 193 189 183 170 166 176 190 174 181 224 250 261 230 217 216 216 211 212 221 221 205 175 138 105 82 66 54 45 38 32 26 22 20
187 193 178 188 197 204 199 188 190 199 195 196 197 196 189 192 179 170 167 182 230 273 274 239 219 209 209 204 217 222 216 200 183 162 138 111 83 59 43 29 19 15 16
187 176 172 184 196 195 188 181 189 201 199 205 210 206 203 202 191 183 174 165 187 259 267 256 230 209 206 200 210 212 216 210 201 195 186 172 147 107 65 40 24 14 10
168 159 159 162 166 165 168 166 186 200 197 207 215 214 215 210 202 202 190 177 176 205 244 244 235 218 203 199 201 200 204 216 211 207 204 198 188 169 121 49 21 10 3
150 145 144 144 141 140 144 150 174 198 202 212 211 215 218 213 210 207 205 199 192 192 220 236 230 216 194 208 205 199 205 216 219 214 213 212 208 203 203 222 315 343 346
159 162 161 155 156 157 156 156 174 177 199 221 226 221 225 215 215 213 207 203 203 195 218 233 222 197 185 198 192 190 197 206 218 219 218 219 218 217 219 226 242 281 316
169 172 166 168 174 174 174 177 187 185 193 217 234 237 242 230 224 218 212 211 208 203 207 217 211 196 200 195 182 187 197 208 214 225 224 223 225 225 225 228 233 245 270
180 182 183 193 198 195 195 200 199 199 202 215 221 228 242 240 240 232 222 217 211 208 201 196 194 177 167 150 146 183 196 206 214 225 228 229 228 228 228 228 230 236 248
203 208 212 215 215 210 207 206 203 206 210 215 216 222 235 238 251 248 234 224 213 208 200 194 184 169 156 147 146 165 195 207 221 218 224 224 227 231 230 229 230 232 236
241 226 227 228 224 216 217 207 203 205 206 212 216 222 237 251 261 252 234 217 209 210 201 199 192 172 166 159 181 175 193 190 225 213 214 223 222 228 227 230 231 231 227
312 265 237 234 234 235 234 220 203 200 202 208 220 231 249 263 280 287 257 228 208 208 204 200 198 194 186 172 157 162 159 154 246 199 195 233 205 230 230 224 225 223 222
342 322 302 267 257 265 267 250 218 198 200 207 213 223 244 248 253 259 271 259 240 230 210 190 194 193 176 176 164 165 176 183 213 184 173 240 204 233 233 227 225 227 225
358 352 349 339 318 318 315 280 233 202 203 210 211 215 231 254 248 231 227 240 246 238 218 208 198 193 179 170 169 169 176 201 225 186 175 236 221 233 239 227 230 226 224
14 13 9 12 13 356 358 342 234 178 199 217 218 219 227 245 257 241 217 232 250 256 249 235 218 206 197 194 180 160 175 199 243 224 192 221 245 246 256 246 235 230 225
24 30 37 32 28 16 14 18 50 131 183 225 245 253 250 253 261 243 211 215 238 249 234 237 236 235 226 222 212 205 199 209 220 239 191 197 234 230 291 282 292 245 232